Погода в Сернуре

Россия / Республика Марий Эл     56°56′08″N   49°08′45″E
темп.,
°C
ветер,
м/с
пор.,
м/с
влажн.,
%
обл.,
%
осадки,
мм/ч
давл.,
гПа
погр.,
м
27 февраля, сб
сб2700:00−15юв91595100 3.9 1001704
03:00−15вюв71294100 5.9 1000606
06:00−14вюв71295100 1.7 999528
09:00−13в71194100 2.6 1000563
12:00−12всв71092100 0.3 1000596
15:00−11св6993100 0.8 1002630
18:00−12св51094100 0.5 1004481
21:00−14ссв599696 0.6 1006252
28 февраля, вс
вс2800:00−18ссв489696 0.0 1007155
03:00−21с489880 0.1 1009138
06:00−22ссв479869 0.0 1010122
09:00−20ссв469654 0.0 1011236
12:00−18с469266 0.0 1012351
15:00−16с479079 0.0 1013474
18:00−20с349735 0.0 101544
21:00−21с349820 0.0 101729
1 марта, пн
пн100:00−22с2310044 0.0 101920
03:00−23с239936 0.0 102020
06:00−23ссз22990 0.0 102120
09:00−20сз11950 0.0 102251
12:00−16зюз22885 0.0 1022231
15:00−14зюз249118 0.0 1020280
18:00−17юз34941 0.0 101935
21:00−17ююз499716 0.0 1017147
2 марта, вт
вт200:00−17ююз5119589 0.0 1014213
03:00−14ююз7139595 0.1 1010271
06:00−12ююз71294100 0.6 1006369
09:00−11ююз61194100 1.8 1003360
12:00−6ю5995100 0.9 1001373
15:00−4ю3596100 1.8 1000268
18:00−6юв1197100 0.4 100121
21:00−6с119789 0.8 100221
3 марта, ср
ср300:00−9ссз229892 0.1 100223
03:00−10сз349789 0.1 100340
06:00−11сз239860 0.0 100421
09:00−7сз349677 0.1 1005193
12:00−4ссз469497 0.1 1006448
15:00−2ссз579397 0.3 1006564
18:00−3ссз5109698 0.3 1008446
21:00−5ссз499693 0.6 1009294